www.pogodaiklimat.ru

Погода и климат >> Архив погоды >> Мексика >> Комитан


ПОГОДА в Комитане

  • Прогноз погоды в Комитане
  • Монитор погоды в Комитане

АРХИВ ПОГОДЫ в Комитане

Время (UTC), дата Ветер
(напр.,м/с)
 
Видим.   Явления Облачность Т
(С)
Тd
(С)
f
(%)
Тe
(С)
Тes
(С)
Комфортность P
(гПа)
Po
(гПа)
Тmin
(С)
Tmax
(С)
R
(мм)
R24
(мм)
S
(см)
06 15.04 СВ 1 4000 м дым {туман} ясно +17.8 +10.7 63 +19 +19 1006.3 839.7 +13.4 +31.9
09 15.04 штиль 0 4000 м дым {туман} 9/0
[As trans]
+16.5 +10.5 68 +16 +16 1007.0 838.6
12 15.04 штиль 0 5000 м дым {туман} ясно +14.4 +11.6 83 +14 +14 1009.2 838.8 +14.3 +31.9
15 15.04 С 1 5000 м дым {туман} 4/4 960 м
[Cu hum]
+19.5 +11.8 61 +22 +29 комфорт 1012.4 840.9 145
18 15.04 С 1 18 км дым {туман} 3/3 1500 м
[Cu med, cong]
+24.0 +11.5 45 +25 +44 комфорт 1010.4 839.9 +14.1 +25.9
21 15.04 СВ 1 18 км дым {туман} 3/3 1500 м
[Cu med, cong]
+28.1 +12.8 39 +30 +40 жарко 1005.8 837.4
00 16.04 СВ 1 18 км дым {туман} 3/3 800 м
[Cu med, cong]
+20.4 +13.9 66 +24 +24 комфорт 1005.9 838.5 +14.1 +29.5
03 16.04 С 1 5000 м дым {туман} 1/1 420 м
[Sc]
+17.5 +14.2 81 +19 +19 1009.0 841.2
06 16.04 С 1 5000 м дым {туман} 1/1 400 м
[St]
+17.0 +13.8 81 +18 +18 1009.3 840.8 +14.1 +29.5
09 16.04 штиль 0 5000 м дым {туман} 9/9 480 м
[Sc]
+16.8 +13.0 78 +17 +17 1009.4 839.5
12 16.04 штиль 0 5000 м дым {туман} 9/9 480 м
[Sc]
+16.9 +12.9 77 +17 +17 1010.5 839.6 +16.5 +29.5
15 16.04 В 1 15 км дым {туман} 5/4 1020 м
[Sc Ac lent]
+21.0 +12.7 59 +25 +31 комфорт 1012.0 840.9
18 16.04 В 1 15 км дым {туман} 3/1 1500 м
[Cu hum Ci]
+26.9 +10.4 36 +28 +50 жарко 1009.3 839.7 +16.4 +27.0
21 16.04 В 2 15 км дым {туман} 3/1 1500 м
[Cu med, cong Ci]
+26.5 +10.5 37 +27 +38 жарко 1006.4 837.7
00 17.04 В 2 15 км дым {туман} 1/1 1500 м
[Cu med, cong Ac lent]
+22.1 +9.7 45 +24 +24 комфорт 1004.6 838.0 +16.9 +27.0
03 17.04 штиль 0 5000 м дым {туман} ясно +18.8 +12.9 69 +20 +20 1006.9 840.0
09 17.04 штиль 0 5000 м дым {туман} ясно +16.6 +11.6 72 +17 +17 1007.0 837.9
12 17.04 штиль 0 15 км дым {туман} 3/0 2000 м
[Ac lent Ci]
+14.7 +10.4 75 +14 +14 1008.1 837.6 +14.1 +27.0
15 17.04 В 1 15 км дым {туман} 1/0
[Ci]
+23.0 +13.0 53 +26 +38 жарко 1008.4 837.9
18 17.04 Ю 1 15 км дым {туман} 4/3 1500 м
[Cu med, cong Ci]
+29.9 +12.7 35 +31 +49 жарко 1006.0 837.3 +13.9 +29.9
21 17.04 ЮЗ 1 15 км дым {туман} 5/5 1500 м
[Cu med, cong]
+30.5 +12.0 32 +31 +38 жарко 1001.0 834.9
00 18.04 СВ 1 15 км дым {туман} 8/8 1110 м
[Cu med, cong]
+22.5 +13.6 57 +26 +26 жарко 1000.5 835.8 +13.9 +31.0
03 18.04 С 1 5000 м дым {туман} 9/9 570 м
[Sc]
+19.6 +14.9 74 +23 +23 комфорт 1002.4 837.4
06 18.04 СВ 1 5000 м дым {туман} 9/9 450 м
[Sc]
+18.9 +15.3 80 +21 +21 комфорт 1003.1 836.8 +13.9 +31.0
09 18.04 штиль 0 5000 м дым {туман} 9/9 420 м
[Sc]
+18.3 +14.8 80 +19 +19 1002.9 835.1
12 18.04 З 1 15 км дым {туман} ясно +16.8 +12.7 77 +18 +18 1004.1 835.0 +15.1 +31.0
15 18.04 Ю 1 18 км дым {туман} 1/1 1380 м
[Cu hum]
+23.5 +12.4 50 +25 +37 комфорт 1005.5 836.3
18 18.04 З 2 15 км дым {туман} 1/1 1500 м
[Cu hum]
+28.1 +11.6 36 +29 +49 жарко 1003.7 835.8 +15.2 +28.2
21 18.04 З 2 18 км дым {туман} 1/1 1500 м
[Cu hum]
+28.5 +11.0 34 +29 +40 жарко 1000.9 834.8
00 19.04 З 2 18 км дым {туман} 1/1 1500 м
[Cu hum]
+24.3 +11.6 45 +26 +26 жарко 999.2 834.4 +15.2 +30.0
03 19.04 З 1 5000 м 9/0
[Ac und]
+21.7 +12.0 54 +24 +24 комфорт 1001.6 836.6
06 19.04 штиль 0 5000 м 4/0
[Ac und]
+20.9 +12.6 59 +23 +23 комфорт 1002.7 836.9 +15.2 +30.0
09 19.04 штиль 0 5000 м 9/9 870 м
[Sc]
+19.5 +12.4 64 +21 +21 комфорт 1003.8 836.6
12 19.04 штиль 0 10 км дождь {туман} 10/8 480 м
[Sc As op]
+17.4 +13.6 78 +17 +17 1005.9 837.3 +17.4 +30.0 0.2
15 19.04 В 3 18 км дым {туман} 9/6 700 м
[Sc Ac trans]
+20.4 +14.8 70 +23 +25 комфорт 1008.4 838.9
18 19.04 З 3 18 км дым {туман} 9/9 1230 м
[Sc]
+25.4 +15.4 54 +28 +30 жарко 1007.9 838.7 +16.7 +25.4
21 19.04 СВ 4 18 км дым {туман} 9/4 1170 м
[Sc Ac trans]
+23.4 +14.0 56 +27 +30 душно 1006.7 837.7
00 20.04 С 3 18 км дым {туман} 6/1 1500 м
[Sc Ac As]
+20.0 +5.6 39 +21 +21 комфорт 1006.2 838.2 +16.7 +25.4
03 20.04 В 2 5000 м дым {туман} 6/0
[Ac trans]
+16.9 +1.5 35 +17 +17 1009.5 840.9
06 20.04 СВ 2 5000 м {туман} 1/0
[Ac trans]
+13.5 +14 +14 1012.1 842.0 +16.7 +25.4
09 20.04 СВ 2 5000 м ясно +12.9 -4.9 29 +13 +13 1012.1 840.7
12 20.04 С 4 20 км 4/0
[Ci]
+12.5 -0.1 42 +11 +11 1013.3 840.5 +25.4
15 20.04 СВ 2 20 км 8/0
[Ci fib]
+17.5 +4.8 43 +18 +27 1015.6 842.1
18 20.04 СВ 1 20 км 1/0
[Ci fib]
+24.0 +4.5 28 +24 +49 комфорт 1012.8 840.8 +12.0 +24.0
21 20.04 С 1 20 км дым 8/0
[Ci fib]
+25.7 +10.7 39 +27 +39 жарко 1009.1 839.3
00 21.04 С 2 20 км дым 3/0
[Ci fib]
+20.8 +2.7 30 +22 +22 комфорт 1007.8 839.6 +12.0 +25.9
03 21.04 СВ 1 5000 м ясно +15.6 +7.8 60 +16 +16 1009.5 841.2
06 21.04 С 1 5000 м ясно +13.9 +9.6 75 +14 +14 1010.7 841.2 +12.0 +25.9
09 21.04 В 1 5000 м ясно +13.4 +5.7 60 +14 +14 1010.8 839.7
12 21.04 штиль 0 20 км 4/0
[Ci]
+10.6 +2.5 57 +10 +10 1012.8 839.8 +10.3 +25.9
15 21.04 С 1 20 км 3/0
[Ci fib]
+21.0 +5.4 36 +23 +35 комфорт 1013.8 840.8
18 21.04 СВ 1 20 км 3/0
[Ci fib]
+29.5 -1.4 13 +26 +51 опасность
солнечного
удара
1010.3 839.6 +10.1 +29.8
21 21.04 С 1 20 км 5/0
[Ci fib]
+28.8 -2.3 13 +26 +39 жарко 1005.6 837.7
00 22.04 СВ 1 20 км 3/0
[Ci fib]
+21.9 +6.7 37 +23 +23 комфорт 1004.5 838.5 +10.1 +31.0
03 22.04 С 1 5000 м ясно +17.1 +9.2 60 +18 +18 1006.8 840.5

 

Местоположение метеостанции Комитан (Мексика): широта 16.25 долгота -92.13 высота над уровнем моря 1646 м.

В архиве по умолчанию представлена погода в Комитане за последнюю неделю. Архивные данные за месяц целиком и за предыдущие месяцы, начиная с января 2011 года, Вы можете получить, выбрав интересующий диапазон дат из раскрывающегося списка и нажав кнопку "Ввод!".


*Определитесь, кто Вы:
робот инопланетянин человек

Внимание! Время в таблицах - всемирное. Для получения местного времени необходимо прибавить поправку, которая равна -6 ч.

Смотрите также архив погоды в соседних городах и на ближайших метеорологических станциях:

Погода в Сан-Кристобаль-де-лас-Касасе (Мексика) (77 км)
Погода в Тустла-Гутьерресе (Мексика) (120 км)
Погода в Уэуэтенанго (Гватемала) (126 км)
Погода в Тапачуле (Мексика) (148 км)
Погода в Арриаге (Мексика) (189 км)
Погода в Вильяэрмосе (Мексика) (210 км)
Погода во Флоресе (Гватемала) (251 км)
Погода в Гватемале (Гватемала) (254 км)
Погода в Пуэрто Сан Хосе (Гватемала) (295 км)
Погода в Коацакоалькосе (Мексика) (320 км)

Пояснения к столбцам:

Ветер - указаны скорость ветра в м/с - средняя за 10 мин, порывы в срок и между сроками (в фигурных скобках) и направление, откуда дует ветер: С - северный, СВ - северо-восточный, В - восточный, ЮВ - юго-восточный, Ю - южный, ЮЗ - юго-западный, З - западный, СЗ - северо-западный.
Видимость - горизонтальная дальность видимости в метрах или километрах. При видимости от 1 до 10 км при отсутствии осадков обычно наблюдается дымка, при ухудшении видимости до 1 км и менее - туман. В сухую погоду видимость может ухудшаться дымом, пылью или мглою.
Явления - указаны атмосферные явления, наблюдавшиеся в срок или в последний час перед сроком; фигурными скобками обозначены явления, наблюдавшиеся между сроками (за 1-3 часа до срока); квадратными скобками обозначены град или гололедные отложения с указанием их диаметра в мм.
Облачность - указаны через наклонную черту общая и нижняя облачность в баллах и высота нижней границы облаков в метрах; квадратными скобками обозначены формы облаков: Ci - перистые, Cs - перисто-слоистые, Cc - перисто-кучевые, Ac - высококучевые, As - высокослоистые, Sc - слоисто-кучевые, Ns - слоисто-дождевые, Cu - кучевые, Cb - кучево-дождевые. Подробнее классификацию облаков см. в Атласе облаков (PDF).
T - Температура воздуха - температура, измеренная на высоте 2 м над землей.
Td - Температура точки росы - температура, при понижении до которой содержащийся в воздухе водяной пар достигнет насыщения.
f - Относительная влажность воздуха - влажноcть воздуха, измеренная на высоте 2 м над землей.
Te - Эффективная температура - температура, которую ощущает одетый по сезону человек в тени. Характеристика душности погоды. При расчете учитывается влияние влажности воздуха и скорости ветра на теплоощущения человека.
Tes - Эффективная температура на солнце - температура, которую ощущает человек, с поправкой на солнечный нагрев. Характеристика знойности погоды. Зависит от высоты солнца над горизонтом, облачности и скорости ветра. Ночью, в пасмурную погоду, а также при ветре 12 м/с и более поправка равна нулю.
P - Атмосферное давление - приведенное к уровню моря атмосферное давление.
Po - Атмосферное давление - измеренное на уровне метеостанции атмосферное давление.
Tmin - Минимальная температура - минимум температуры воздуха на высоте 2 м над землей.
Tmax - Максимальная температура - максимум температуры воздуха на высоте 2 м над землей.
R - Количество осадков - Количество выпавших осадков за период времени, мм. При наведении курсора мыши на число - период времени, за который выпало указанное количество осадков.
R24 - Количество осадков - Количество выпавших осадков за 24 часа, мм.
S - Снежный покров - Высота снежного покрова, см. При наведении курсора мыши на число - состояние снежного покрова и степень покрытия местности в баллах.